TimeBST,TemperatureF,Dew PointF,Humidity,Sea Level PressureIn,VisibilityMPH,Wind Direction,Wind SpeedMPH,Gust SpeedMPH,PrecipitationIn,Events,Conditions,WindDirDegrees,DateUTC
12:20 AM,55.4,46.4,72,30.30,-9999.0,Variable,2.3,-,N/A,,Clear,0,2013-06-24 23:20:00
12:50 AM,54,46,67,30.31,19,NW,4.6,,,,Mostly Cloudy,310,2013-06-24 23:50:00
12:50 AM,55.4,46.4,72,30.30,-9999.0,NW,2.3,-,N/A,,Clear,320,2013-06-24 23:50:00
1:20 AM,53.6,46.4,77,30.30,6.2,NW,4.6,-,N/A,,Unknown,310,2013-06-25 00:20:00
1:50 AM,55.4,46.4,72,30.30,6.2,NW,2.3,-,N/A,,Unknown,320,2013-06-25 00:50:00
2:20 AM,55.4,44.6,67,30.33,6.2,Variable,3.5,-,N/A,,Unknown,0,2013-06-25 01:20:00
2:50 AM,53.6,44.6,72,30.33,-9999.0,Variable,2.3,-,N/A,,Clear,0,2013-06-25 01:50:00
3:20 AM,51.8,44.6,76,30.33,-9999.0,WNW,3.5,-,N/A,,Clear,300,2013-06-25 02:20:00
3:50 AM,51,44,70,30.35,19,WNW,1.2,,,,Mostly Cloudy,290,2013-06-25 02:50:00
3:50 AM,51.8,42.8,71,30.33,-9999.0,WNW,2.3,-,N/A,,Clear,300,2013-06-25 02:50:00
4:20 AM,51.8,44.6,76,30.33,-9999.0,Variable,3.5,-,N/A,,Clear,0,2013-06-25 03:20:00
4:50 AM,51.8,42.8,71,30.33,-9999.0,WNW,3.5,-,N/A,,Clear,300,2013-06-25 03:50:00
5:20 AM,51.8,42.8,71,30.36,-9999.0,Variable,3.5,-,N/A,,Clear,0,2013-06-25 04:20:00
5:50 AM,53.6,42.8,67,30.36,-9999.0,WNW,3.5,-,N/A,,Clear,300,2013-06-25 04:50:00
6:20 AM,53.6,44.6,72,30.36,-9999.0,Variable,3.5,-,N/A,,Clear,0,2013-06-25 05:20:00
6:50 AM,54,44,60,30.38,14,WNW,3.5,,,,,300,2013-06-25 05:50:00
6:50 AM,53.6,44.6,72,30.36,6.2,Variable,3.5,-,N/A,,Partly Cloudy,0,2013-06-25 05:50:00
7:20 AM,55.4,44.6,67,30.39,-9999.0,Variable,3.5,-,N/A,,Clear,0,2013-06-25 06:20:00
7:50 AM,55.4,44.6,67,30.39,6.2,Variable,3.5,-,N/A,,Partly Cloudy,0,2013-06-25 06:50:00
8:20 AM,57.2,46.4,67,30.39,6.2,Variable,3.5,-,N/A,,Partly Cloudy,0,2013-06-25 07:20:00
8:50 AM,59.0,46.4,63,30.39,6.2,Variable,2.3,-,N/A,,Partly Cloudy,0,2013-06-25 07:50:00
9:20 AM,59.0,46.4,63,30.39,6.2,NNW,4.6,-,N/A,,Partly Cloudy,340,2013-06-25 08:20:00
9:50 AM,61,46,46,30.40,18,NNW,3.5,,,,Mostly Cloudy,330,2013-06-25 08:50:00
9:50 AM,60.8,46.4,59,30.39,6.2,Variable,3.5,-,N/A,,Partly Cloudy,0,2013-06-25 08:50:00
10:20 AM,60.8,44.6,55,30.39,6.2,Variable,5.8,-,N/A,,Scattered Clouds,0,2013-06-25 09:20:00
10:50 AM,62.6,44.6,52,30.39,6.2,Variable,3.5,-,N/A,,Scattered Clouds,0,2013-06-25 09:50:00
11:20 AM,62.6,44.6,52,30.39,6.2,West,4.6,-,N/A,,Scattered Clouds,280,2013-06-25 10:20:00
11:50 AM,62.6,44.6,52,30.39,6.2,WNW,5.8,-,N/A,,Scattered Clouds,300,2013-06-25 10:50:00
12:20 PM,64.4,42.8,45,30.39,6.2,Variable,6.9,-,N/A,,Partly Cloudy,0,2013-06-25 11:20:00
12:50 PM,65,44,36,30.40,22,WNW,3.5,,,,Scattered Clouds,300,2013-06-25 11:50:00
12:50 PM,64.4,42.8,45,30.39,6.2,West,6.9,-,N/A,,Scattered Clouds,270,2013-06-25 11:50:00
1:20 PM,66.2,42.8,43,30.39,6.2,NW,8.1,-,N/A,,Scattered Clouds,310,2013-06-25 12:20:00
1:50 PM,66.2,41.0,40,30.39,6.2,Variable,4.6,-,N/A,,Partly Cloudy,0,2013-06-25 12:50:00
2:20 PM,68.0,39.2,35,30.39,-9999.0,NW,6.9,-,N/A,,Clear,310,2013-06-25 13:20:00
2:50 PM,69.8,39.2,33,30.39,-9999.0,NW,8.1,-,N/A,,Clear,320,2013-06-25 13:50:00
3:20 PM,69.8,39.2,33,30.39,-9999.0,WNW,8.1,-,N/A,,Clear,300,2013-06-25 14:20:00
3:50 PM,67,39,25,30.40,22,NW,8.1,,,,Mostly Cloudy,320,2013-06-25 14:50:00
3:50 PM,68.0,41.0,37,30.39,-9999.0,North,5.8,-,N/A,,Clear,350,2013-06-25 14:50:00
4:20 PM,66.2,39.2,37,30.39,-9999.0,WNW,6.9,-,N/A,,Clear,300,2013-06-25 15:20:00
4:50 PM,68.0,39.2,35,30.39,-9999.0,WNW,10.4,-,N/A,,Clear,290,2013-06-25 15:50:00
5:20 PM,69.8,39.2,33,30.39,-9999.0,WNW,9.2,-,N/A,,Clear,300,2013-06-25 16:20:00
5:50 PM,69.8,37.4,31,30.39,-9999.0,WNW,6.9,-,N/A,,Clear,300,2013-06-25 16:50:00
6:20 PM,68.0,39.2,35,30.39,-9999.0,WNW,8.1,-,N/A,,Clear,300,2013-06-25 17:20:00
6:50 PM,66,41,29,30.40,22,West,5.8,,,,Mostly Cloudy,280,2013-06-25 17:50:00
6:50 PM,66.2,41.0,40,30.39,-9999.0,NW,5.8,-,N/A,,Clear,310,2013-06-25 17:50:00
7:20 PM,66.2,41.0,40,30.39,-9999.0,NW,5.8,-,N/A,,Clear,320,2013-06-25 18:20:00
7:50 PM,68.0,41.0,37,30.39,-9999.0,NW,5.8,-,N/A,,Clear,320,2013-06-25 18:50:00
8:20 PM,66.2,41.0,40,30.42,-9999.0,WNW,6.9,-,N/A,,Clear,300,2013-06-25 19:20:00
8:50 PM,64.4,42.8,45,30.42,-9999.0,NW,4.6,-,N/A,,Clear,310,2013-06-25 19:50:00
9:20 PM,64.4,42.8,45,30.42,-9999.0,NW,4.6,-,N/A,,Clear,310,2013-06-25 20:20:00
9:50 PM,62,44,41,30.43,19,WNW,3.5,,,,Partly Cloudy,300,2013-06-25 20:50:00
9:50 PM,64.4,42.8,45,30.42,-9999.0,WNW,3.5,-,N/A,,Clear,300,2013-06-25 20:50:00
10:20 PM,64.4,44.6,49,30.42,-9999.0,NW,3.5,-,N/A,,Clear,310,2013-06-25 21:20:00
10:50 PM,60.8,44.6,55,30.42,-9999.0,NW,4.6,-,N/A,,Clear,310,2013-06-25 21:50:00
11:20 PM,57.2,44.6,63,30.42,-9999.0,NW,4.6,-,N/A,,Clear,320,2013-06-25 22:20:00
11:50 PM,55.4,37.4,51,30.42,-9999.0,NW,3.5,-,N/A,,Clear,310,2013-06-25 22:50:00